Regional Weather Roundup
Issued by NWS

Home | Current Version | Previous Version | Text Only | Print | Product List | Glossary Off
Versions: 1 2 3 4 5 6 7 8 9 10 11 12 13 14 15 16 17 18 19 20 21 22 23 24 25 26 27 28 29 30 31 32 33 34 35 36 37 38 39 40 41 42 43 44 45 46 47 48 49 50

000
ASUS43 KDTX 272201
RWRMI
MICHIGAN HOURLY REGIONAL WEATHER ROUNDUP
NATIONAL WEATHER SERVICE DETROIT/PONTIAC MI
600 PM EDT TUE SEP 27 2016

NOTE: "FAIR" INDICATES FEW OR NO CLOUDS BELOW 12,000 FEET WITH NO
SIGNIFICANT WEATHER AND/OR OBSTRUCTION TO VISIBILITY.

MIZ047>049-052>055-059>063-066>070-074>076-081>083-272300-
SOUTHEAST LOWER MICHIGAN

CITY           SKY/WX    TMP DP  RH WIND       PRES   REMARKS
ADRIAN         SUNNY     67  31  26 W14G20    29.77R
ALMA           CLOUDY    58  48  70 W8        29.74R
ANN ARBOR      SUNNY     67  35  30 SW13G22   29.74R
BAD AXE        CLOUDY    56  47  70 W5        29.74R
CARO           CLOUDY    59  45  58 W12       29.73R
DETROIT CITY   SUNNY     67  32  27 W14G24    29.75R
DETROIT        PTSUNNY   68  34  28 SW14      29.76R
FLINT          CLOUDY    60  44  55 W10       29.75R
GROSSE ILE     SUNNY     69  32  25 W14G20    29.74R
HILLSDALE      SUNNY     66  30  26 W12G17    29.75S
HOWELL         CLOUDY    62  44  50 W6        29.75R

CITY           SKY/WX    TMP DP  RH WIND       PRES   REMARKS
JACKSON        SUNNY     65  37  35 W14       29.75R
LAMBERTVILLE   SUNNY     70  33  25 W9G16     29.76S
LANSING        CLOUDY    61  43  51 W10       29.75R
LAPEER         CLOUDY    62  43  50 W8        29.75R
MASON          CLOUDY    61  45  54 NW6       29.75R
MONROE         SUNNY     70  36  28 W13G21    29.74S
MT. CLEMENS    PTSUNNY   67  37  33 SW13G20   29.73R
PONTIAC        PTSUNNY   63  39  41 W6        29.74R
PORT HURON     CLOUDY    64  45  48 SW3       29.74R
TRI CITIES     CLOUDY    59  47  64 W13G22    29.74R
MIDLAND        CLOUDY    57  46  66 SW8       29.72R
TROY           CLOUDY    68  30  24 W9        29.77R
SAGINAW HB     CLOUDY    59  45  58 SW13      29.73R
$$
MIZ043>046-050>051-056>058-064>065-071>073-077>080-272300-
SOUTHWEST LOWER MICHIGAN

CITY           SKY/WX    TMP DP  RH WIND       PRES   REMARKS
BATTLE CREEK   CLOUDY    64  38  38 W18       29.75R
BENTON HARBOR  CLOUDY    66  40  38 W13G24    29.74S
BIG RAPIDS     CLOUDY    55  50  83 SW5       29.72R
COLDWATER      SUNNY     67  29  24 W15       29.75S
FREMONT        CLOUDY    54  48  80 SW3       29.73R
HOLLAND        CLOUDY    61  46  57 W6        29.75R
GRAND RAPIDS   CLOUDY    59  44  57 W12       29.75R
IONIA          CLOUDY    58  44  58 W7        29.74R
KALAMAZOO      PTSUNNY   65  36  34 W13       29.75S
LUDINGTON      RAIN      56  47  72 W9G17     29.69R
MARSHALL       CLOUDY    64  37  36 W8G18     29.74S
MOUNT PLEASANT CLOUDY    57  47  67 SW10      29.73R
MUSKEGON       CLOUDY    59  46  62 W12G18    29.73R
SOUTH HAVEN    CLOUDY    63  50  62 NW5       29.74S
$$
MIZ016>042-272300-
NORTHERN LOWER MICHIGAN

CITY           SKY/WX    TMP DP  RH WIND       PRES   REMARKS
ALPENA         CLOUDY    57  50  77 S3        29.67R
BEAVER ISLAND  LGT RAIN  51  49  93 CALM      29.63R
BELLAIRE       LGT RAIN  53  51  92 W3        29.67R
CADILLAC       CLOUDY    52  49  90 SW9       29.68R
CHARLEVOIX     LGT RAIN  53  48  84 W12       29.67R
FRANKFORT      RAIN      53  49  83 W8G17     29.67R
GAYLORD        LGT RAIN  52  48  86 SW10      29.65R
GRAYLING       RAIN      53  50  90 SW5       29.68R
HARBOR SPRINGS DRIZZLE   52  51  94 W6        29.64R
HOUGHTON LAKE  CLOUDY    52  49  89 SW9       29.70R
MANISTEE       RAIN      52  50  93 W13       29.69R
OSCODA         DRIZZLE   55  51  89 SW6       29.70R
PELLSTON       LGT RAIN  53  50  89 W5        29.64R
ROGERS CITY    CLOUDY    56  49  77 S7        29.66R
TRAVERSE CITY  RAIN      54  50  86 W6        29.66R FOG
$$
MIZ007>008-015-272300-
EASTERN UPPER MICHIGAN

CITY           SKY/WX    TMP DP  RH WIND       PRES   REMARKS
KINROSS        LGT RAIN  52  51  97 W3        29.62R
MACKINAC ISLAN LGT RAIN  53  53 100 NW8       29.62R
NEWBERRY       DRIZZLE   51  50  97 SW9       29.60R
S. S. MARIE    LGT RAIN  55  52  89 SW5       29.61R
MUNISING         N/A     54  51  90 VRB5      29.59R
$$
MIZ004>006-011>014-085-272300-
CENTRAL UPPER MICHIGAN

CITY           SKY/WX    TMP DP  RH WIND       PRES   REMARKS
MANISTIQUE     LGT RAIN  51  49  92 W6        29.61R
ESCANABA       CLOUDY    52  50  93 W9        29.63R
MENOMINEE      LGT RAIN  53  51  93 VRB6      29.66R
SAWYER-GWINN   CLOUDY    52  46  82 W9        29.61R
$$
MIZ001>003-009>011-084-272300-
WESTERN UPPER MICHIGAN

CITY           SKY/WX    TMP DP  RH WIND       PRES   REMARKS
IRON MOUNTAIN  LGT RAIN  51  45  79 W7        29.63R
HOUGHTON       CLOUDY    53  50  89 NW12      29.60R
COPPER HARBOR    N/A     57  54  89 NE14G23   29.57R
IRONWOOD       LGT RAIN  48  47  96 W8        29.70R FOG
$$

ABBREVIATIONS USED IN REMARKS
   TC - TEMPERATURE IN CELSIUS
  WCI - WIND CHILL INDEX
   HX - HEAT INDEX
  VSB - VISIBILITY





USA.gov is the U.S. government's official web portal to all federal, state and local government web resources and services.